Regional Weather Roundup
Issued by NWS

Home | Current Version | Previous Version | Graphics & Text | Print | Product List | Glossary On
Versions: 1 2 3 4 5 6 7 8 9 10 11 12 13 14 15 16 17 18 19 20 21 22 23 24 25 26 27 28 29 30 31 32 33 34 35 36 37 38 39 40 41 42 43 44 45 46 47 48 49 50
000
ASUS44 KMEG 290200
RWRTN
TENNESSEE HOURLY STATE WEATHER ROUNDUP
NATIONAL WEATHER SERVICE MEMPHIS TN
900 PM CDT SAT MAR 28 2015

TNZ002-004-019-021-049-052-054-088>092-290300-
WEST TENNESSEE

CITY           SKY/WX    TMP DP  RH WIND       PRES   REMARKS
MEMPHIS INTL   CLOUDY    42  28  57 S3        30.31R
NWS MEMPHIS      N/A     42 N/A N/A MISG        N/A
JACKSON        CLEAR     35  24  64 CALM      30.31R
DYERSBURG      CLEAR     37  19  48 W3        30.32R
UNION CITY     CLEAR     37  21  52 CALM      30.29R
PARIS          CLEAR     34  12  40 CALM      30.30R
LEXINGTON      CLEAR     36  14  41 CALM      30.28R
SAVANNAH       CLEAR     32  25  74 CALM      30.30R
$$

TNZ008-025-027-028-033-062-065-066-290300-
NORTH MIDDLE TENNESSEE

CITY           SKY/WX    TMP DP  RH WIND       PRES   REMARKS
NASHVILLE      CLEAR     37  14  38 N6        30.31R WCI  32
CLARKSVILLE    CLEAR     37  14  38 NE3       30.31R
COOKEVILLE     CLEAR     30  19  64 CALM      30.27R
CROSSVILLE     CLEAR     33  10  38 N5        30.25R WCI  29
$$

TNZ061-075-076-078-094-096-097-290300-
SOUTH MIDDLE TENNESSEE

CITY           SKY/WX    TMP DP  RH WIND       PRES   REMARKS
FAYETTEVILLE   CLEAR     36  12  38 NE5       30.28R WCI  32
TULLAHOMA      CLEAR     36   9  32 CALM      30.28R
WINCHESTER     CLEAR     36  12  38 N3        30.28R
COLUMBIA       CLEAR     36  18  48 CALM      30.28R
SHELBYVILLE    CLEAR     34  18  51 NE5       30.30R WCI  30
$$

TNZ017-018-042-046-047-290300-
NORTHEAST TENNESSEE

CITY           SKY/WX    TMP DP  RH WIND       PRES   REMARKS
TRI CITIES     CLEAR     31  12  45 N6        30.24R WCI  25
ELIZABETHTON   CLEAR     30   9  40 N3        30.22R
$$

TNZ012-013-036-069-073-074-290300-
CENTRAL EAST TENNESSEE

CITY           SKY/WX    TMP DP  RH WIND       PRES   REMARKS
KNOXVILLE      CLEAR     38  13  35 N8        30.26R WCI  32
OAK RIDGE      CLEAR     38  12  34 VRB3      30.29R
GATLINBURG     CLEAR     34  12  40 CALM      30.26R
$$

TNZ083-085-099-290300-
SOUTHEAST TENNESSEE

CITY           SKY/WX    TMP DP  RH WIND       PRES   REMARKS
CHATTANOOGA    PTCLDY    40  13  33 N7        30.27R
$$

SKY/WX REPORTED AS FAIR MEANS FEW OR NO CLOUDS BELOW
12 THOUSAND FEET.




USA.gov is the U.S. government's official web portal to all federal, state and local government web resources and services.